TimeCDT,TemperatureF,Dew PointF,Humidity,Sea Level PressureIn,VisibilityMPH,Wind Direction,Wind SpeedMPH,Gust SpeedMPH,PrecipitationIn,Events,Conditions,WindDirDegrees,DateUTC
12:15 AM,50.7,49.1,94,30.30,10.0,Calm,Calm,-,N/A,,Clear,0,2013-05-25 05:15:00
12:35 AM,50.2,48.4,94,30.29,10.0,Calm,Calm,-,N/A,,Clear,0,2013-05-25 05:35:00
12:55 AM,50.4,48.4,93,30.28,10.0,Calm,Calm,-,N/A,,Clear,0,2013-05-25 05:55:00
1:15 AM,49.6,48.4,95,30.28,10.0,Calm,Calm,-,N/A,,Clear,0,2013-05-25 06:15:00
1:35 AM,48.9,47.8,96,30.28,10.0,Calm,Calm,-,N/A,,Clear,0,2013-05-25 06:35:00
1:55 AM,48.9,48.0,97,30.28,10.0,Calm,Calm,-,N/A,,Clear,0,2013-05-25 06:55:00
2:15 AM,48.9,48.2,97,30.28,10.0,Calm,Calm,-,N/A,,Clear,0,2013-05-25 07:15:00
2:35 AM,48.2,47.8,99,30.28,10.0,Calm,Calm,-,N/A,,Clear,0,2013-05-25 07:35:00
2:55 AM,48.4,47.5,97,30.28,10.0,Calm,Calm,-,N/A,,Clear,0,2013-05-25 07:55:00
3:15 AM,47.5,47.3,99,30.29,10.0,Calm,Calm,-,N/A,,Clear,0,2013-05-25 08:15:00
3:35 AM,47.1,47.1,100,30.28,10.0,Calm,Calm,-,N/A,,Clear,0,2013-05-25 08:35:00
3:55 AM,46.8,46.8,100,30.28,10.0,Calm,Calm,-,N/A,,Clear,0,2013-05-25 08:55:00
4:15 AM,46.8,46.8,100,30.29,10.0,Calm,Calm,-,N/A,,Clear,0,2013-05-25 09:15:00
4:35 AM,46.8,46.8,100,30.28,10.0,Calm,Calm,-,N/A,,Clear,0,2013-05-25 09:35:00
4:55 AM,46.0,46.0,100,30.26,10.0,Calm,Calm,-,N/A,,Clear,0,2013-05-25 09:55:00
5:15 AM,46.4,46.4,100,30.27,10.0,Calm,Calm,-,N/A,,Clear,0,2013-05-25 10:15:00
5:35 AM,46.4,46.4,100,30.28,10.0,Calm,Calm,-,N/A,,Clear,0,2013-05-25 10:35:00
5:55 AM,45.9,45.9,100,30.29,7.0,Calm,Calm,-,N/A,,Clear,0,2013-05-25 10:55:00
6:15 AM,46.6,46.6,100,30.30,10.0,Calm,Calm,-,N/A,,Clear,0,2013-05-25 11:15:00
6:35 AM,48.2,48.2,100,30.31,10.0,Calm,Calm,-,N/A,,Clear,0,2013-05-25 11:35:00
6:55 AM,50.2,49.8,99,30.32,10.0,Calm,Calm,-,N/A,,Clear,0,2013-05-25 11:55:00
7:15 AM,53.1,51.1,93,30.33,10.0,Calm,Calm,-,N/A,,Clear,0,2013-05-25 12:15:00
7:35 AM,55.6,50.7,84,30.34,10.0,Calm,Calm,-,N/A,,Clear,0,2013-05-25 12:35:00
7:55 AM,57.7,49.8,75,30.35,10.0,Calm,Calm,-,N/A,,Clear,0,2013-05-25 12:55:00
8:15 AM,59.2,49.3,70,30.35,10.0,Calm,Calm,-,N/A,,Clear,0,2013-05-25 13:15:00
8:35 AM,61.2,49.8,66,30.35,10.0,ESE,3.5,-,N/A,,Clear,110,2013-05-25 13:35:00
8:55 AM,62.6,49.5,62,30.34,10.0,Calm,Calm,-,N/A,,Clear,0,2013-05-25 13:55:00
9:15 AM,64.6,49.3,58,30.35,10.0,ESE,4.6,-,N/A,,Clear,110,2013-05-25 14:15:00
9:35 AM,65.3,47.7,53,30.34,10.0,SE,3.5,-,N/A,,Clear,130,2013-05-25 14:35:00
9:55 AM,66.4,48.4,52,30.34,10.0,ESE,4.6,-,N/A,,Clear,120,2013-05-25 14:55:00
10:15 AM,67.1,47.3,49,30.33,10.0,ESE,6.9,-,N/A,,Clear,110,2013-05-25 15:15:00
10:35 AM,68.0,47.3,47,30.32,10.0,ESE,4.6,-,N/A,,Clear,120,2013-05-25 15:35:00
10:55 AM,68.5,47.7,47,30.32,10.0,SE,3.5,-,N/A,,Clear,130,2013-05-25 15:55:00
11:15 AM,68.9,45.1,42,30.31,10.0,SE,3.5,-,N/A,,Clear,140,2013-05-25 16:15:00
11:35 AM,70.2,46.4,43,30.31,10.0,SSE,4.6,-,N/A,,Clear,160,2013-05-25 16:35:00
11:55 AM,70.9,47.5,43,30.32,10.0,Calm,Calm,-,N/A,,Clear,0,2013-05-25 16:55:00
12:15 PM,71.2,47.3,42,30.31,10.0,SSE,4.6,-,N/A,,Clear,160,2013-05-25 17:15:00
12:35 PM,72.3,46.0,39,30.30,10.0,ESE,4.6,-,N/A,,Clear,110,2013-05-25 17:35:00
12:55 PM,72.7,46.4,39,30.29,10.0,South,4.6,-,N/A,,Clear,190,2013-05-25 17:55:00
1:15 PM,73.0,47.1,40,30.29,10.0,SE,5.8,-,N/A,,Clear,140,2013-05-25 18:15:00
1:35 PM,73.4,44.8,36,30.27,10.0,East,3.5,-,N/A,,Clear,90,2013-05-25 18:35:00
1:55 PM,74.1,46.8,38,30.27,10.0,SE,5.8,-,N/A,,Clear,140,2013-05-25 18:55:00
2:15 PM,74.7,46.0,36,30.27,10.0,Calm,Calm,-,N/A,,Clear,0,2013-05-25 19:15:00
2:35 PM,73.9,47.3,39,30.28,10.0,SSW,3.5,-,N/A,,Clear,200,2013-05-25 19:35:00
2:55 PM,74.7,46.4,37,30.27,10.0,NE,4.6,-,N/A,,Clear,40,2013-05-25 19:55:00
3:15 PM,73.8,45.9,37,30.26,10.0,Calm,Calm,-,N/A,,Clear,0,2013-05-25 20:15:00
3:35 PM,75.9,46.4,35,30.25,10.0,Calm,Calm,-,N/A,,Clear,0,2013-05-25 20:35:00
3:55 PM,76.3,45.3,33,30.24,10.0,ESE,3.5,-,N/A,,Clear,120,2013-05-25 20:55:00
4:15 PM,75.6,46.4,35,30.24,10.0,SE,3.5,-,N/A,,Clear,140,2013-05-25 21:15:00
4:35 PM,75.7,47.3,36,30.24,10.0,East,4.6,-,N/A,,Clear,90,2013-05-25 21:35:00
4:55 PM,75.4,47.8,38,30.22,10.0,ESE,4.6,-,N/A,,Clear,110,2013-05-25 21:55:00
5:15 PM,74.7,46.9,37,30.20,10.0,ESE,5.8,-,N/A,,Clear,110,2013-05-25 22:15:00
5:35 PM,74.3,46.9,38,30.18,10.0,ESE,6.9,-,N/A,,Clear,120,2013-05-25 22:35:00
5:55 PM,73.9,46.8,38,30.20,10.0,East,3.5,-,N/A,,Clear,90,2013-05-25 22:55:00
6:15 PM,74.7,46.4,37,30.19,10.0,SE,4.6,-,N/A,,Clear,130,2013-05-25 23:15:00
6:35 PM,73.4,48.2,41,30.17,10.0,SSE,6.9,-,N/A,,Mostly Cloudy,150,2013-05-25 23:35:00
6:55 PM,72.9,47.3,40,30.17,10.0,SE,4.6,-,N/A,,Scattered Clouds,140,2013-05-25 23:55:00
7:15 PM,72.0,47.7,42,30.16,10.0,ESE,3.5,-,N/A,,Clear,120,2013-05-26 00:15:00
7:35 PM,70.9,49.1,46,30.17,10.0,Calm,Calm,-,N/A,,Clear,0,2013-05-26 00:35:00
7:55 PM,67.8,52.0,57,30.16,10.0,Calm,Calm,-,N/A,,Clear,0,2013-05-26 00:55:00
8:15 PM,67.1,52.3,59,30.16,10.0,Calm,Calm,-,N/A,,Clear,0,2013-05-26 01:15:00
8:35 PM,65.8,51.3,59,30.15,10.0,Calm,Calm,-,N/A,,Clear,0,2013-05-26 01:35:00
8:55 PM,65.5,51.4,60,30.15,10.0,Calm,Calm,-,N/A,,Clear,0,2013-05-26 01:55:00
9:15 PM,64.6,51.1,62,30.16,10.0,Calm,Calm,-,N/A,,Clear,0,2013-05-26 02:15:00
9:35 PM,62.2,52.9,71,30.17,10.0,Calm,Calm,-,N/A,,Clear,0,2013-05-26 02:35:00
9:55 PM,61.9,52.7,72,30.18,10.0,Calm,Calm,-,N/A,,Clear,0,2013-05-26 02:55:00
10:15 PM,61.9,53.8,75,30.19,10.0,Calm,Calm,-,N/A,,Clear,0,2013-05-26 03:15:00
10:35 PM,61.0,54.3,79,30.19,10.0,Calm,Calm,-,N/A,,Clear,0,2013-05-26 03:35:00
10:55 PM,59.7,53.6,80,30.18,10.0,Calm,Calm,-,N/A,,Mostly Cloudy,0,2013-05-26 03:55:00
11:15 PM,59.7,54.5,83,30.19,10.0,Calm,Calm,-,N/A,,Scattered Clouds,0,2013-05-26 04:15:00
11:35 PM,59.4,53.8,82,30.19,10.0,Calm,Calm,-,N/A,,Scattered Clouds,0,2013-05-26 04:35:00
11:55 PM,59.4,54.5,84,30.19,10.0,Calm,Calm,-,N/A,,Overcast,0,2013-05-26 04:55:00